Time,TemperatureF,DewpointF,PressureIn,WindDirection,WindDirectionDegrees,WindSpeedMPH,WindSpeedGustMPH,Humidity,HourlyPrecipIn,Conditions,Clouds,dailyrainin,SolarRadiationWatts/m^2,SoftwareType,DateUTC
2013-03-17 00:22:00,61.0,35.0,-100.00,North,5,13.0,23.0,37,0.00,,,0.00,0.000000,,2013-03-17 07:22:00,
2013-03-17 00:32:00,61.0,35.0,-100.00,North,5,13.0,23.0,37,0.00,,,0.00,0.000000,,2013-03-17 07:32:00,
2013-03-17 00:42:00,61.0,35.0,-100.00,North,5,13.0,23.0,37,0.00,,,0.00,0.000000,,2013-03-17 07:42:00,
2013-03-17 00:52:00,61.0,35.0,-100.00,North,5,13.0,23.0,37,0.00,,,0.00,0.000000,,2013-03-17 07:52:00,
2013-03-17 01:22:00,59.0,28.0,-100.00,North,354,8.0,25.0,30,0.00,,,0.00,0.000000,,2013-03-17 08:22:00,
2013-03-17 01:32:00,59.0,28.0,-100.00,North,354,8.0,25.0,30,0.00,,,0.00,0.000000,,2013-03-17 08:32:00,
2013-03-17 01:42:00,59.0,28.0,-100.00,North,354,8.0,25.0,30,0.00,,,0.00,0.000000,,2013-03-17 08:42:00,
2013-03-17 01:52:00,59.0,28.0,-100.00,North,354,8.0,25.0,30,0.00,,,0.00,0.000000,,2013-03-17 08:52:00,
2013-03-17 02:22:00,59.0,32.0,-100.00,North,354,7.0,13.0,36,0.00,,,0.00,0.000000,,2013-03-17 09:22:00,
2013-03-17 02:32:00,59.0,32.0,-100.00,North,354,7.0,13.0,36,0.00,,,0.00,0.000000,,2013-03-17 09:32:00,
2013-03-17 02:42:00,59.0,32.0,-100.00,North,354,7.0,13.0,36,0.00,,,0.00,0.000000,,2013-03-17 09:42:00,
2013-03-17 02:52:00,59.0,32.0,-100.00,North,354,7.0,13.0,36,0.00,,,0.00,0.000000,,2013-03-17 09:52:00,
2013-03-17 03:23:00,60.0,28.0,-100.00,NNE,25,6.0,14.0,30,0.00,,,0.00,0.000000,,2013-03-17 10:23:00,
2013-03-17 03:33:00,60.0,28.0,-100.00,NNE,25,6.0,14.0,30,0.00,,,0.00,0.000000,,2013-03-17 10:33:00,
2013-03-17 03:42:00,60.0,28.0,-100.00,NNE,25,6.0,14.0,30,0.00,,,0.00,0.000000,,2013-03-17 10:42:00,
2013-03-17 03:52:00,60.0,28.0,-100.00,NNE,25,6.0,14.0,30,0.00,,,0.00,0.000000,,2013-03-17 10:52:00,
2013-03-17 04:22:00,58.0,31.0,-100.00,NNE,17,11.0,17.0,35,0.00,,,0.00,0.000000,,2013-03-17 11:22:00,
2013-03-17 04:32:00,58.0,31.0,-100.00,NNE,17,11.0,17.0,35,0.00,,,0.00,0.000000,,2013-03-17 11:32:00,
2013-03-17 04:42:00,58.0,31.0,-100.00,NNE,17,11.0,17.0,35,0.00,,,0.00,0.000000,,2013-03-17 11:42:00,
2013-03-17 04:51:00,58.0,31.0,-100.00,NNE,17,11.0,17.0,35,0.00,,,0.00,0.000000,,2013-03-17 11:51:00,
2013-03-17 05:22:00,57.0,31.0,-100.00,WNW,302,5.0,16.0,37,0.00,,,0.00,0.000000,,2013-03-17 12:22:00,
2013-03-17 05:32:00,57.0,31.0,-100.00,WNW,302,5.0,16.0,37,0.00,,,0.00,0.000000,,2013-03-17 12:32:00,
2013-03-17 05:42:00,57.0,31.0,-100.00,WNW,302,5.0,16.0,37,0.00,,,0.00,0.000000,,2013-03-17 12:42:00,
2013-03-17 05:51:00,57.0,31.0,-100.00,WNW,302,5.0,16.0,37,0.00,,,0.00,0.000000,,2013-03-17 12:51:00,
2013-03-17 06:22:00,55.0,33.0,-100.00,NNE,17,8.0,14.0,44,0.00,,,0.00,0.000000,,2013-03-17 13:22:00,
2013-03-17 06:32:00,55.0,33.0,-100.00,NNE,17,8.0,14.0,44,0.00,,,0.00,0.000000,,2013-03-17 13:32:00,
2013-03-17 06:42:00,55.0,33.0,-100.00,NNE,17,8.0,14.0,44,0.00,,,0.00,0.000000,,2013-03-17 13:42:00,
2013-03-17 06:52:00,55.0,33.0,-100.00,NNE,17,8.0,14.0,44,0.00,,,0.00,0.000000,,2013-03-17 13:52:00,
2013-03-17 07:22:00,52.0,33.0,-100.00,North,10,8.0,12.0,48,0.00,,,0.00,0.000000,,2013-03-17 14:22:00,
2013-03-17 07:32:00,52.0,33.0,-100.00,North,10,8.0,12.0,48,0.00,,,0.00,0.000000,,2013-03-17 14:32:00,
2013-03-17 07:42:00,52.0,33.0,-100.00,North,10,8.0,12.0,48,0.00,,,0.00,0.000000,,2013-03-17 14:42:00,
2013-03-17 07:52:00,52.0,33.0,-100.00,North,10,8.0,12.0,48,0.00,,,0.00,0.000000,,2013-03-17 14:52:00,
2013-03-17 08:23:00,51.0,30.0,-100.00,NNE,22,6.0,10.0,44,0.00,,,0.00,15.000000,,2013-03-17 15:23:00,
2013-03-17 08:33:00,51.0,30.0,-100.00,NNE,22,6.0,10.0,44,0.00,,,0.00,15.000000,,2013-03-17 15:33:00,
2013-03-17 08:42:00,51.0,30.0,-100.00,NNE,22,6.0,10.0,44,0.00,,,0.00,15.000000,,2013-03-17 15:42:00,
2013-03-17 08:52:00,51.0,30.0,-100.00,NNE,22,6.0,10.0,44,0.00,,,0.00,15.000000,,2013-03-17 15:52:00,
2013-03-17 09:22:00,59.0,33.0,-100.00,SSW,194,0.0,10.0,38,0.00,,,0.00,208.000000,,2013-03-17 16:22:00,
2013-03-17 09:33:00,59.0,33.0,-100.00,SSW,194,0.0,10.0,38,0.00,,,0.00,208.000000,,2013-03-17 16:33:00,
2013-03-17 09:42:00,59.0,33.0,-100.00,SSW,194,0.0,10.0,38,0.00,,,0.00,208.000000,,2013-03-17 16:42:00,
2013-03-17 09:52:00,59.0,33.0,-100.00,SSW,194,0.0,10.0,38,0.00,,,0.00,208.000000,,2013-03-17 16:52:00,
2013-03-17 10:22:00,60.0,34.0,-100.00,NNE,16,5.0,8.0,38,0.00,,,0.00,506.000000,,2013-03-17 17:22:00,
2013-03-17 10:33:00,60.0,34.0,-100.00,NNE,16,5.0,8.0,38,0.00,,,0.00,506.000000,,2013-03-17 17:33:00,
2013-03-17 10:42:00,60.0,34.0,-100.00,NNE,16,5.0,8.0,38,0.00,,,0.00,506.000000,,2013-03-17 17:42:00,
2013-03-17 10:52:00,60.0,34.0,-100.00,NNE,16,5.0,8.0,38,0.00,,,0.00,506.000000,,2013-03-17 17:52:00,
2013-03-17 11:22:00,63.0,40.0,-100.00,SSW,198,8.0,16.0,42,0.00,,,0.00,711.000000,,2013-03-17 18:22:00,
2013-03-17 11:32:00,63.0,40.0,-100.00,SSW,198,8.0,16.0,42,0.00,,,0.00,711.000000,,2013-03-17 18:32:00,
2013-03-17 11:42:00,63.0,40.0,-100.00,SSW,198,8.0,16.0,42,0.00,,,0.00,711.000000,,2013-03-17 18:42:00,
2013-03-17 11:52:00,63.0,40.0,-100.00,SSW,198,8.0,16.0,42,0.00,,,0.00,711.000000,,2013-03-17 18:52:00,
2013-03-17 12:22:00,66.0,38.0,-100.00,South,173,12.0,19.0,36,0.00,,,0.00,854.000000,,2013-03-17 19:22:00,
2013-03-17 12:32:00,66.0,38.0,-100.00,South,173,12.0,19.0,36,0.00,,,0.00,854.000000,,2013-03-17 19:32:00,
2013-03-17 12:41:00,66.0,38.0,-100.00,South,173,12.0,19.0,36,0.00,,,0.00,854.000000,,2013-03-17 19:41:00,
2013-03-17 12:53:00,66.0,38.0,-100.00,South,173,12.0,19.0,36,0.00,,,0.00,854.000000,,2013-03-17 19:53:00,
2013-03-17 13:22:00,68.0,36.0,-100.00,SSE,166,19.0,28.0,31,0.00,,,0.00,925.000000,,2013-03-17 20:22:00,
2013-03-17 13:32:00,68.0,36.0,-100.00,SSE,166,19.0,28.0,31,0.00,,,0.00,925.000000,,2013-03-17 20:32:00,
2013-03-17 13:42:00,68.0,36.0,-100.00,SSE,166,19.0,28.0,31,0.00,,,0.00,925.000000,,2013-03-17 20:42:00,
2013-03-17 13:52:00,68.0,36.0,-100.00,SSE,166,19.0,28.0,31,0.00,,,0.00,925.000000,,2013-03-17 20:52:00,
2013-03-17 14:22:00,69.0,34.0,-100.00,South,171,12.0,25.0,27,0.00,,,0.00,958.000000,,2013-03-17 21:22:00,
2013-03-17 14:33:00,69.0,34.0,-100.00,South,171,12.0,25.0,27,0.00,,,0.00,958.000000,,2013-03-17 21:33:00,
2013-03-17 14:42:00,69.0,34.0,-100.00,South,171,12.0,25.0,27,0.00,,,0.00,958.000000,,2013-03-17 21:42:00,
2013-03-17 14:52:00,69.0,34.0,-100.00,South,171,12.0,25.0,27,0.00,,,0.00,958.000000,,2013-03-17 21:52:00,
2013-03-17 15:23:00,73.0,34.0,-100.00,South,174,16.0,22.0,24,0.00,,,0.00,899.000000,,2013-03-17 22:23:00,
2013-03-17 15:33:00,73.0,34.0,-100.00,South,174,16.0,22.0,24,0.00,,,0.00,899.000000,,2013-03-17 22:33:00,
2013-03-17 15:42:00,73.0,34.0,-100.00,South,174,16.0,22.0,24,0.00,,,0.00,899.000000,,2013-03-17 22:42:00,
2013-03-17 15:52:00,73.0,34.0,-100.00,South,174,16.0,22.0,24,0.00,,,0.00,899.000000,,2013-03-17 22:52:00,
2013-03-17 16:22:00,70.0,34.0,-100.00,WNW,301,29.0,44.0,27,0.00,,,0.00,761.000000,,2013-03-17 23:22:00,
2013-03-17 16:32:00,70.0,34.0,-100.00,WNW,301,29.0,44.0,27,0.00,,,0.00,761.000000,,2013-03-17 23:32:00,
2013-03-17 16:42:00,70.0,34.0,-100.00,WNW,301,29.0,44.0,27,0.00,,,0.00,761.000000,,2013-03-17 23:42:00,
2013-03-17 16:52:00,70.0,34.0,-100.00,WNW,301,29.0,44.0,27,0.00,,,0.00,761.000000,,2013-03-17 23:52:00,
2013-03-17 17:22:00,68.0,34.0,-100.00,WNW,298,29.0,44.0,28,0.00,,,0.00,586.000000,,2013-03-18 00:22:00,
2013-03-17 17:32:00,68.0,34.0,-100.00,WNW,298,29.0,44.0,28,0.00,,,0.00,586.000000,,2013-03-18 00:32:00,
2013-03-17 17:42:00,68.0,34.0,-100.00,WNW,298,29.0,44.0,28,0.00,,,0.00,586.000000,,2013-03-18 00:42:00,
2013-03-17 17:52:00,68.0,34.0,-100.00,WNW,298,29.0,44.0,28,0.00,,,0.00,586.000000,,2013-03-18 00:52:00,
2013-03-17 18:22:00,65.0,28.0,-100.00,NW,312,24.0,43.0,25,0.00,,,0.00,360.000000,,2013-03-18 01:22:00,
2013-03-17 18:32:00,65.0,28.0,-100.00,NW,312,24.0,43.0,25,0.00,,,0.00,360.000000,,2013-03-18 01:32:00,
2013-03-17 19:22:00,63.0,26.0,-100.00,ENE,63,15.0,31.0,24,0.00,,,0.00,90.000000,,2013-03-18 02:22:00,
2013-03-17 19:32:00,63.0,26.0,-100.00,ENE,63,15.0,31.0,24,0.00,,,0.00,90.000000,,2013-03-18 02:32:00,
2013-03-17 19:42:00,63.0,26.0,-100.00,ENE,63,15.0,31.0,24,0.00,,,0.00,90.000000,,2013-03-18 02:42:00,
2013-03-17 19:52:00,63.0,26.0,-100.00,ENE,63,15.0,31.0,24,0.00,,,0.00,90.000000,,2013-03-18 02:52:00,
2013-03-17 20:22:00,61.0,28.0,-100.00,NNW,343,14.0,29.0,28,0.00,,,0.00,0.000000,,2013-03-18 03:22:00,
2013-03-17 20:33:00,61.0,28.0,-100.00,NNW,343,14.0,29.0,28,0.00,,,0.00,0.000000,,2013-03-18 03:33:00,
2013-03-17 20:42:00,61.0,28.0,-100.00,NNW,343,14.0,29.0,28,0.00,,,0.00,0.000000,,2013-03-18 03:42:00,
2013-03-17 20:52:00,61.0,28.0,-100.00,NNW,343,14.0,29.0,28,0.00,,,0.00,0.000000,,2013-03-18 03:52:00,
2013-03-17 21:22:00,59.0,24.0,-100.00,NW,315,7.0,22.0,26,0.00,,,0.00,0.000000,,2013-03-18 04:22:00,
2013-03-17 22:22:00,58.0,34.0,-100.00,SSE,162,15.0,19.0,41,0.00,,,0.00,0.000000,,2013-03-18 05:22:00,
2013-03-17 22:32:00,58.0,34.0,-100.00,SSE,162,15.0,19.0,41,0.00,,,0.00,0.000000,,2013-03-18 05:32:00,
2013-03-17 22:42:00,58.0,34.0,-100.00,SSE,162,15.0,19.0,41,0.00,,,0.00,0.000000,,2013-03-18 05:42:00,
2013-03-17 22:52:00,58.0,34.0,-100.00,SSE,162,15.0,19.0,41,0.00,,,0.00,0.000000,,2013-03-18 05:52:00,
2013-03-17 23:22:00,53.0,34.0,-100.00,North,3,0.0,19.0,48,0.00,,,0.00,0.000000,,2013-03-18 06:22:00,
2013-03-17 23:32:00,53.0,34.0,-100.00,North,3,0.0,19.0,48,0.00,,,0.00,0.000000,,2013-03-18 06:32:00,
2013-03-17 23:42:00,53.0,34.0,-100.00,North,3,0.0,19.0,48,0.00,,,0.00,0.000000,,2013-03-18 06:42:00,
2013-03-17 23:52:00,53.0,34.0,-100.00,North,3,0.0,19.0,48,0.00,,,0.00,0.000000,,2013-03-18 06:52:00,